TimeCDT,TemperatureF,Dew PointF,Humidity,Sea Level PressureIn,VisibilityMPH,Wind Direction,Wind SpeedMPH,Gust SpeedMPH,PrecipitationIn,Events,Conditions,WindDirDegrees,DateUTC
12:15 AM,28.4,23.0,80,30.34,10.0,Calm,Calm,-,N/A,,Clear,0,2013-04-17 05:15:00
12:35 AM,26.6,23.0,86,30.34,10.0,Calm,Calm,-,N/A,,Clear,0,2013-04-17 05:35:00
12:55 AM,26.6,23.0,86,30.34,10.0,Calm,Calm,-,N/A,,Clear,0,2013-04-17 05:55:00
1:15 AM,26.6,23.0,86,30.34,10.0,Calm,Calm,-,N/A,,Clear,0,2013-04-17 06:15:00
1:35 AM,26.6,23.0,86,30.34,10.0,Calm,Calm,-,N/A,,Clear,0,2013-04-17 06:35:00
1:55 AM,24.8,24.8,100,30.34,10.0,Calm,Calm,-,N/A,,Clear,0,2013-04-17 06:55:00
2:15 AM,26.6,24.8,93,30.34,10.0,Calm,Calm,-,N/A,,Clear,0,2013-04-17 07:15:00
2:35 AM,24.8,24.8,100,30.33,10.0,Calm,Calm,-,N/A,,Clear,0,2013-04-17 07:35:00
2:55 AM,23.0,23.0,100,30.33,10.0,Calm,Calm,-,N/A,,Clear,0,2013-04-17 07:55:00
3:15 AM,24.8,24.8,100,30.34,10.0,Calm,Calm,-,N/A,,Clear,0,2013-04-17 08:15:00
3:35 AM,23.0,23.0,100,30.34,10.0,Calm,Calm,-,N/A,,Clear,0,2013-04-17 08:35:00
3:55 AM,23.0,23.0,100,30.35,10.0,Calm,Calm,-,N/A,,Clear,0,2013-04-17 08:55:00
4:15 AM,23.0,23.0,100,30.35,10.0,Calm,Calm,-,N/A,,Clear,0,2013-04-17 09:15:00
4:55 AM,23.0,23.0,100,30.35,10.0,NNE,3.5,-,N/A,,Clear,30,2013-04-17 09:55:00
5:15 AM,24.8,24.8,100,30.34,10.0,NNE,4.6,-,N/A,,Clear,30,2013-04-17 10:15:00
5:35 AM,23.0,23.0,100,30.35,10.0,Calm,Calm,-,N/A,,Clear,0,2013-04-17 10:35:00
5:55 AM,26.6,24.8,93,30.34,10.0,Calm,Calm,-,N/A,,Clear,0,2013-04-17 10:55:00
6:15 AM,23.0,23.0,100,30.33,10.0,NNE,3.5,-,N/A,,Clear,30,2013-04-17 11:15:00
6:35 AM,23.0,23.0,100,30.32,10.0,NNE,3.5,-,N/A,,Clear,30,2013-04-17 11:35:00
6:55 AM,24.8,24.8,100,30.32,10.0,NE,4.6,-,N/A,,Clear,40,2013-04-17 11:55:00
7:15 AM,26.6,26.6,100,30.32,10.0,ENE,3.5,-,N/A,,Clear,60,2013-04-17 12:15:00
7:35 AM,28.4,26.6,93,30.31,10.0,East,6.9,-,N/A,,Clear,90,2013-04-17 12:35:00
7:55 AM,30.2,26.6,86,30.34,10.0,ESE,6.9,-,N/A,,Clear,110,2013-04-17 12:55:00
8:15 AM,32.0,26.6,80,30.34,10.0,ESE,5.8,-,N/A,,Clear,110,2013-04-17 13:15:00
8:35 AM,32.0,26.6,80,30.34,10.0,ESE,8.1,-,N/A,,Mostly Cloudy,110,2013-04-17 13:35:00
8:55 AM,32.0,26.6,80,30.33,10.0,ESE,8.1,-,N/A,,Overcast,110,2013-04-17 13:55:00
9:15 AM,32.0,26.6,80,30.31,10.0,East,6.9,-,N/A,,Overcast,80,2013-04-17 14:15:00
9:35 AM,32.0,26.6,80,30.31,10.0,East,9.2,-,N/A,,Overcast,100,2013-04-17 14:35:00
9:55 AM,33.8,26.6,75,30.31,10.0,ESE,5.8,-,N/A,,Overcast,120,2013-04-17 14:55:00
10:15 AM,33.8,24.8,70,30.29,10.0,SE,6.9,-,N/A,,Overcast,130,2013-04-17 15:15:00
10:35 AM,33.8,24.8,70,30.30,10.0,SE,6.9,-,N/A,,Overcast,130,2013-04-17 15:35:00
10:55 AM,35.6,24.8,65,30.29,10.0,East,9.2,-,N/A,,Mostly Cloudy,90,2013-04-17 15:55:00
11:15 AM,35.6,24.8,65,30.28,10.0,ESE,8.1,-,N/A,,Clear,120,2013-04-17 16:15:00
11:35 AM,35.6,24.8,65,30.27,10.0,ESE,8.1,-,N/A,,Clear,120,2013-04-17 16:35:00
11:55 AM,35.6,24.8,65,30.25,10.0,East,5.8,-,N/A,,Mostly Cloudy,90,2013-04-17 16:55:00
12:15 PM,35.6,26.6,70,30.25,10.0,ENE,6.9,-,N/A,,Overcast,70,2013-04-17 17:15:00
12:35 PM,35.6,24.8,65,30.24,10.0,East,6.9,-,N/A,,Overcast,100,2013-04-17 17:35:00
12:55 PM,35.6,26.6,70,30.23,10.0,East,9.2,-,N/A,,Overcast,90,2013-04-17 17:55:00
1:15 PM,37.4,26.6,65,30.25,10.0,East,3.5,-,N/A,,Overcast,100,2013-04-17 18:15:00
1:35 PM,37.4,26.6,65,30.25,10.0,ESE,6.9,-,N/A,,Overcast,120,2013-04-17 18:35:00
1:55 PM,37.4,26.6,65,30.25,10.0,SSW,3.5,-,N/A,,Overcast,210,2013-04-17 18:55:00
2:15 PM,37.4,26.6,65,30.24,10.0,Calm,Calm,-,N/A,,Overcast,0,2013-04-17 19:15:00
2:35 PM,37.4,26.6,65,30.22,10.0,Calm,Calm,-,N/A,,Overcast,0,2013-04-17 19:35:00
2:55 PM,37.4,26.6,65,30.20,10.0,East,4.6,-,N/A,,Overcast,90,2013-04-17 19:55:00
3:35 PM,37.4,26.6,65,30.15,10.0,East,8.1,-,N/A,,Overcast,100,2013-04-17 20:35:00
3:55 PM,37.4,26.6,65,30.13,10.0,East,12.7,-,N/A,,Overcast,90,2013-04-17 20:55:00
4:15 PM,37.4,26.6,65,30.10,10.0,East,12.7,18.4,N/A,,Overcast,90,2013-04-17 21:15:00
4:35 PM,39.2,26.6,61,30.12,10.0,East,9.2,-,N/A,,Mostly Cloudy,90,2013-04-17 21:35:00
4:55 PM,39.2,26.6,61,30.12,10.0,East,10.4,-,N/A,,Overcast,90,2013-04-17 21:55:00
5:15 PM,39.2,26.6,61,30.11,10.0,East,8.1,-,N/A,,Overcast,90,2013-04-17 22:15:00
5:35 PM,37.4,26.6,65,30.11,10.0,East,6.9,-,N/A,,Overcast,100,2013-04-17 22:35:00
5:55 PM,37.4,26.6,65,30.11,10.0,East,9.2,-,N/A,,Overcast,100,2013-04-17 22:55:00
6:15 PM,37.4,24.8,60,30.10,10.0,ESE,10.4,-,N/A,,Overcast,110,2013-04-17 23:15:00
6:35 PM,37.4,24.8,60,30.07,10.0,East,10.4,-,N/A,,Overcast,90,2013-04-17 23:35:00
6:55 PM,37.4,24.8,60,30.06,10.0,East,10.4,-,N/A,,Overcast,90,2013-04-17 23:55:00
7:15 PM,37.4,26.6,65,30.05,10.0,East,15.0,-,N/A,,Overcast,90,2013-04-18 00:15:00
7:35 PM,35.6,28.4,75,30.04,10.0,East,15.0,19.6,N/A,,Overcast,100,2013-04-18 00:35:00
7:55 PM,35.6,28.4,75,30.06,10.0,ESE,8.1,-,N/A,,Overcast,110,2013-04-18 00:55:00
8:15 PM,35.6,28.4,75,30.07,10.0,East,3.5,-,N/A,,Overcast,100,2013-04-18 01:15:00
8:35 PM,35.6,28.4,75,30.06,10.0,East,6.9,-,N/A,,Overcast,100,2013-04-18 01:35:00
8:55 PM,35.6,28.4,75,30.04,10.0,East,8.1,-,N/A,,Overcast,80,2013-04-18 01:55:00
9:15 PM,35.6,28.4,75,30.03,10.0,East,8.1,-,N/A,,Overcast,80,2013-04-18 02:15:00
9:35 PM,35.6,28.4,75,30.02,10.0,East,8.1,-,N/A,,Overcast,90,2013-04-18 02:35:00
9:55 PM,35.6,28.4,75,30.01,10.0,East,6.9,-,N/A,,Overcast,80,2013-04-18 02:55:00
10:15 PM,35.6,30.2,81,30.01,7.0,East,8.1,-,N/A,,Drizzle,80,2013-04-18 03:15:00
10:35 PM,35.6,28.4,75,30.01,10.0,East,5.8,-,N/A,,Overcast,90,2013-04-18 03:35:00
10:55 PM,35.6,28.4,75,30.01,10.0,ENE,8.1,-,N/A,,Drizzle,70,2013-04-18 03:55:00
11:15 PM,33.8,30.2,87,29.99,4.0,East,10.4,-,N/A,Rain,Heavy Rain,100,2013-04-18 04:15:00
11:35 PM,33.8,32.0,93,29.98,3.0,East,6.9,-,N/A,,Overcast,80,2013-04-18 04:35:00
11:55 PM,33.8,32.0,93,29.96,4.0,ENE,5.8,-,N/A,,Drizzle,60,2013-04-18 04:55:00